TimeCDT,TemperatureF,Dew PointF,Humidity,Sea Level PressureIn,VisibilityMPH,Wind Direction,Wind SpeedMPH,Gust SpeedMPH,PrecipitationIn,Events,Conditions,WindDirDegrees,DateUTC
12:53 AM,51.1,35.1,54,30.01,10.0,South,10.4,-,N/A,,Clear,180,2013-04-26 05:53:00
1:53 AM,51.8,35.6,54,30.01,10.0,South,11.5,-,N/A,,Clear,180,2013-04-26 06:53:00
2:53 AM,52.0,35.1,53,29.98,10.0,South,12.7,20.7,N/A,,Clear,190,2013-04-26 07:53:00
3:53 AM,51.1,36.0,56,29.97,10.0,South,10.4,-,N/A,,Clear,190,2013-04-26 08:53:00
4:53 AM,48.9,36.0,61,29.97,10.0,SSW,8.1,-,N/A,,Clear,200,2013-04-26 09:53:00
5:53 AM,46.9,36.0,66,29.97,10.0,South,6.9,-,N/A,,Clear,190,2013-04-26 10:53:00
6:53 AM,46.9,36.0,66,29.98,10.0,South,8.1,-,N/A,,Clear,180,2013-04-26 11:53:00
7:53 AM,45.0,37.9,76,30.04,10.0,Calm,Calm,-,N/A,,Clear,0,2013-04-26 12:53:00
8:53 AM,51.1,37.9,61,30.04,10.0,South,6.9,-,N/A,,Clear,180,2013-04-26 13:53:00
9:53 AM,55.9,39.9,55,30.04,10.0,South,9.2,-,N/A,,Clear,180,2013-04-26 14:53:00
10:53 AM,57.9,39.9,51,30.04,10.0,SSW,6.9,-,N/A,,Clear,210,2013-04-26 15:53:00
11:53 AM,64.0,37.9,38,30.05,10.0,SW,4.6,-,N/A,,Clear,230,2013-04-26 16:53:00
12:53 PM,64.9,37.9,37,30.05,10.0,SSE,5.8,-,N/A,,Clear,160,2013-04-26 17:53:00
1:53 PM,68.0,37.9,33,30.04,10.0,SSE,4.6,-,N/A,,Clear,150,2013-04-26 18:53:00
2:53 PM,69.1,39.0,33,30.04,10.0,NE,6.9,-,N/A,,Clear,40,2013-04-26 19:53:00
3:53 PM,70.0,42.1,36,30.04,10.0,East,8.1,-,N/A,,Clear,100,2013-04-26 20:53:00
4:53 PM,70.0,39.9,33,30.05,10.0,Calm,Calm,-,N/A,,Clear,0,2013-04-26 21:53:00
5:53 PM,69.1,42.1,38,30.05,10.0,ENE,4.6,-,N/A,,Clear,60,2013-04-26 22:53:00
6:53 PM,66.9,43.0,42,30.07,10.0,ESE,9.2,-,N/A,,Clear,110,2013-04-26 23:53:00
7:53 PM,62.1,48.9,62,30.10,10.0,SSE,16.1,-,N/A,,Clear,160,2013-04-27 00:53:00
8:53 PM,57.0,48.9,74,30.12,10.0,South,10.4,-,N/A,,Clear,180,2013-04-27 01:53:00
9:53 PM,53.1,48.0,83,30.15,10.0,South,6.9,-,N/A,,Clear,190,2013-04-27 02:53:00
10:53 PM,50.0,46.9,89,30.18,10.0,South,3.5,-,N/A,,Clear,180,2013-04-27 03:53:00
11:53 PM,48.0,45.0,89,30.17,8.0,South,5.8,-,N/A,,Clear,190,2013-04-27 04:53:00